contact: severine.martini@mio.osupytheas.fr, dominique.lefevre@mio.osupytheas.fr
Project:EMSO Ligure-ouest http://www.emso-fr.org/EMSO-France
Sensor Aquadopp, Serial 05974 
DOI : "https://doi.org/10.17882/97948" 
Title:EMSO Western Ligurian : Data Bathybot Aquadopp sensor - deploiement 2023-04-28
Datetime,Profondeur,Latitude,Longitude,X_East,Y_North,Z_up,Amplitude_X,Amplitude_Y,Amplitude_Z,Batterie,Sound_Speed,Heading,Pitch,Roll,Pressure,Temperature,Fluorescence,Speed,Direction
time,m,degree_north,degree_east,m.s-1,m.s-1,m.s-1,1,1,1,Volt,m.s-1,degree,degree,degree,dbar,degree_C,arbitrary units (a.u.),m.s-1,degree
2023-10-31T00:03:13,2420,42.8014,5.9826,0.676,0.046,3.602,155.0,151.0,152.0,11.8,1504.7,271.4,-0.8,0.9,2485.368,13.28,799.0,0.677,86.1
2023-10-31T00:06:13,2420,42.8014,5.9826,0.44,0.061,3.828,155.0,151.0,152.0,11.7,1504.7,271.4,-0.8,0.9,2485.376,13.28,772.0,0.444,82.1
2023-10-31T00:09:14,2420,42.8014,5.9826,0.179,0.079,4.136,154.0,151.0,152.0,11.8,1504.7,271.4,-0.8,0.9,2485.336,13.28,807.0,0.195,66.2
2023-10-31T00:12:14,2420,42.8014,5.9826,0.361,0.294,3.5,155.0,151.0,152.0,11.8,1504.7,271.3,-0.8,0.9,2485.55,13.28,790.0,0.466,50.8
2023-10-31T00:15:14,2420,42.8014,5.9826,0.538,0.038,3.785,155.0,151.0,152.0,11.8,1504.7,271.5,-0.8,0.9,2485.247,13.28,771.0,0.539,86.0
2023-10-31T00:18:14,2420,42.8014,5.9826,0.412,0.053,3.889,155.0,151.0,152.0,11.8,1504.7,271.3,-0.8,0.9,2485.761,13.28,815.0,0.415,82.7
2023-10-31T00:21:14,2420,42.8014,5.9826,0.237,0.492,3.193,155.0,151.0,157.0,11.8,1504.7,271.4,-0.9,0.9,2485.603,13.28,1754.0,0.546,25.7
2023-10-31T00:24:13,2420,42.8014,5.9826,0.529,0.043,3.775,155.0,151.0,152.0,11.7,1504.7,271.3,-0.8,0.9,2485.791,13.28,774.0,0.531,85.4
2023-10-31T00:27:14,2420,42.8014,5.9826,0.399,0.289,3.49,155.0,152.0,152.0,11.8,1504.7,271.4,-0.8,0.9,2485.556,13.28,776.0,0.493,54.1
2023-10-31T00:30:14,2420,42.8014,5.9826,0.309,0.042,3.986,155.0,152.0,152.0,11.8,1504.7,271.4,-0.8,0.9,2485.538,13.28,781.0,0.312,82.3
2023-10-31T00:33:13,2420,42.8014,5.9826,0.73,0.028,3.592,155.0,151.0,152.0,11.8,1504.7,271.4,-0.9,0.9,2485.44,13.28,769.0,0.731,87.8
2023-10-31T00:36:14,2420,42.8014,5.9826,0.583,0.017,3.683,155.0,151.0,152.0,11.8,1504.7,271.5,-0.8,0.9,2485.49,13.28,774.0,0.583,88.3
2023-10-31T00:39:14,2420,42.8014,5.9826,0.383,0.063,3.876,155.0,151.0,152.0,11.8,1504.7,271.4,-0.8,0.9,2485.352,13.28,786.0,0.388,80.7
2023-10-31T00:42:14,2420,42.8014,5.9826,0.493,0.061,3.76,155.0,151.0,152.0,11.8,1504.7,271.3,-0.8,0.9,2485.472,13.28,765.0,0.497,82.9
2023-10-31T00:45:14,2420,42.8014,5.9826,0.364,0.042,3.929,155.0,152.0,152.0,11.8,1504.7,271.4,-0.8,0.9,2485.223,13.28,767.0,0.366,83.4
2023-10-31T00:48:14,2420,42.8014,5.9826,0.515,0.061,3.776,155.0,151.0,152.0,11.8,1504.7,271.3,-0.9,0.9,2485.472,13.28,2056.0,0.519,83.2
2023-10-31T00:51:14,2420,42.8014,5.9826,0.493,0.043,3.81,155.0,151.0,152.0,11.8,1504.7,271.4,-0.8,0.9,2485.627,13.28,774.0,0.495,85.0
2023-10-31T00:54:14,2420,42.8014,5.9826,0.565,0.056,3.762,155.0,151.0,152.0,11.8,1504.7,271.4,-0.9,0.9,2485.508,13.28,777.0,0.568,84.3
2023-10-31T00:57:14,2420,42.8014,5.9826,0.395,0.042,3.936,155.0,151.0,152.0,11.8,1504.7,271.3,-0.8,0.9,2485.322,13.28,785.0,0.397,83.9
2023-10-31T01:03:13,2420,42.8014,5.9826,0.508,0.059,3.751,155.0,151.0,152.0,11.8,1504.7,271.3,-0.8,0.9,2485.665,13.28,760.0,0.511,83.4
2023-10-31T01:06:14,2420,42.8014,5.9826,0.517,0.041,3.737,155.0,151.0,152.0,11.8,1504.7,271.3,-0.8,0.9,2485.597,13.28,764.0,0.519,85.5
2023-10-31T01:09:14,2420,42.8014,5.9826,0.35,0.044,3.963,154.0,151.0,152.0,11.8,1504.7,271.4,-0.8,0.9,2485.354,13.28,773.0,0.353,82.8
2023-10-31T01:12:14,2420,42.8014,5.9826,0.486,0.044,3.832,155.0,151.0,152.0,11.8,1504.7,271.5,-0.8,0.9,2485.225,13.28,787.0,0.488,84.8
2023-10-31T01:15:14,2420,42.8014,5.9826,0.317,0.067,3.97,155.0,151.0,152.0,11.8,1504.7,271.3,-0.9,0.9,2485.675,13.28,838.0,0.324,78.1
2023-10-31T01:18:14,2420,42.8014,5.9826,0.569,0.053,3.74,155.0,151.0,152.0,11.8,1504.7,271.4,-0.8,0.9,2485.408,13.28,2085.0,0.571,84.7
2023-10-31T01:21:14,2420,42.8014,5.9826,0.344,0.028,3.92,155.0,151.0,152.0,11.8,1504.7,271.3,-0.8,0.9,2485.247,13.28,775.0,0.345,85.3
2023-10-31T01:24:14,2420,42.8014,5.9826,0.083,0.066,3.359,155.0,151.0,152.0,11.8,1504.7,271.5,-0.8,0.9,2485.342,13.28,782.0,0.106,51.5
2023-10-31T01:27:14,2420,42.8014,5.9826,0.481,0.046,3.796,155.0,151.0,152.0,11.8,1504.7,271.4,-0.8,0.9,2485.285,13.28,777.0,0.483,84.5
2023-10-31T01:30:14,2420,42.8014,5.9826,0.56,0.05,3.696,155.0,151.0,152.0,11.8,1504.7,271.3,-0.9,0.9,2485.482,13.28,775.0,0.562,84.9
2023-10-31T01:33:13,2420,42.8014,5.9826,0.46,0.042,3.805,155.0,151.0,152.0,11.8,1504.7,271.4,-0.8,0.9,2485.51,13.28,755.0,0.462,84.8
2023-10-31T01:36:14,2420,42.8014,5.9826,0.237,0.3,3.686,155.0,151.0,152.0,11.8,1504.7,271.4,-0.8,0.8,2485.613,13.28,896.0,0.382,38.3
2023-10-31T01:39:14,2420,42.8014,5.9826,0.253,0.046,4.055,155.0,151.0,152.0,11.8,1504.7,271.3,-0.9,0.9,2485.579,13.28,778.0,0.257,79.7
2023-10-31T01:42:14,2420,42.8014,5.9826,0.241,-0.191,3.609,155.0,151.0,152.0,11.8,1504.7,271.5,-0.8,0.9,2485.544,13.28,792.0,0.307,128.4
2023-10-31T01:45:14,2420,42.8014,5.9826,0.375,0.061,3.873,155.0,151.0,152.0,11.8,1504.7,271.3,-0.9,0.9,2485.225,13.28,781.0,0.38,80.8
2023-10-31T01:48:14,2420,42.8014,5.9826,0.306,0.033,3.954,155.0,151.0,152.0,11.8,1504.7,271.4,-0.9,0.9,2485.609,13.28,787.0,0.308,83.8
2023-10-31T01:51:14,2420,42.8014,5.9826,0.462,0.037,3.854,155.0,151.0,152.0,11.8,1504.7,271.4,-0.8,0.9,2485.639,13.28,774.0,0.463,85.4
2023-10-31T01:54:14,2420,42.8014,5.9826,0.235,0.084,4.009,155.0,151.0,152.0,11.8,1504.7,271.3,-0.9,0.9,2485.257,13.28,6266.0,0.249,70.3
2023-10-31T01:57:14,2420,42.8014,5.9826,0.465,0.054,3.849,155.0,151.0,152.0,11.8,1504.7,271.4,-0.9,0.9,2485.811,13.28,781.0,0.468,83.4
2023-10-31T02:03:13,2420,42.8014,5.9826,0.308,0.051,3.975,155.0,151.0,152.0,11.8,1504.7,271.3,-0.9,0.9,2485.38,13.28,772.0,0.312,80.6
2023-10-31T02:06:13,2420,42.8014,5.9826,0.755,0.042,3.547,155.0,151.0,152.0,11.8,1504.7,271.3,-0.8,0.9,2485.408,13.28,780.0,0.756,86.8
2023-10-31T02:09:13,2420,42.8014,5.9826,0.416,0.059,3.933,155.0,151.0,152.0,11.8,1504.7,271.5,-0.8,0.8,2485.643,13.28,776.0,0.42,81.9
2023-10-31T02:12:14,2420,42.8014,5.9826,0.353,0.04,3.99,155.0,151.0,152.0,11.8,1504.7,271.3,-0.9,0.9,2485.625,13.28,779.0,0.355,83.5
2023-10-31T02:15:14,2420,42.8014,5.9826,0.405,0.072,3.873,155.0,151.0,152.0,11.8,1504.7,271.3,-0.8,0.9,2485.468,13.28,1184.0,0.411,79.9
2023-10-31T02:18:14,2420,42.8014,5.9826,0.361,0.061,3.993,155.0,151.0,152.0,11.8,1504.7,271.5,-0.8,0.9,2485.247,13.28,774.0,0.366,80.4
2023-10-31T02:21:14,2420,42.8014,5.9826,0.192,0.061,4.127,154.0,151.0,152.0,11.8,1504.7,271.4,-0.8,0.8,2485.815,13.28,777.0,0.201,72.4
2023-10-31T02:24:14,2420,42.8014,5.9826,0.351,0.063,3.948,155.0,151.0,152.0,11.8,1504.7,271.3,-0.8,0.8,2485.506,13.28,773.0,0.357,79.8
2023-10-31T02:27:14,2420,42.8014,5.9826,0.199,-0.183,3.675,155.0,151.0,152.0,11.8,1504.7,271.5,-0.8,0.9,2485.129,13.28,777.0,0.27,132.6
2023-10-31T02:30:14,2420,42.8014,5.9826,0.508,0.255,3.331,155.0,151.0,152.0,11.8,1504.7,271.4,-0.8,0.9,2485.731,13.28,1336.0,0.568,63.3
2023-10-31T02:33:13,2420,42.8014,5.9826,0.326,0.055,3.973,155.0,151.0,152.0,11.8,1504.7,271.5,-0.8,0.9,2485.404,13.28,783.0,0.331,80.4
2023-10-31T02:36:13,2420,42.8014,5.9826,0.363,0.062,3.896,155.0,151.0,152.0,11.8,1504.7,271.4,-0.8,0.9,2485.342,13.28,1023.0,0.368,80.3
2023-10-31T02:39:14,2420,42.8014,5.9826,0.427,0.056,3.815,154.0,151.0,152.0,11.8,1504.7,271.4,-0.9,0.9,2485.189,13.28,1064.0,0.431,82.5
2023-10-31T02:42:14,2420,42.8014,5.9826,0.398,0.06,3.915,155.0,151.0,152.0,11.8,1504.7,271.5,-0.8,0.9,2485.03,13.28,777.0,0.402,81.4
2023-10-31T02:45:14,2420,42.8014,5.9826,0.79,0.043,3.551,155.0,151.0,152.0,11.8,1504.7,271.5,-0.8,0.9,2485.378,13.28,763.0,0.791,86.9
2023-10-31T02:48:14,2420,42.8014,5.9826,0.28,0.08,3.974,155.0,151.0,152.0,11.8,1504.7,271.4,-0.8,0.9,2485.474,13.28,777.0,0.291,74.1
2023-10-31T02:51:14,2420,42.8014,5.9826,0.543,0.07,3.772,155.0,151.0,152.0,11.8,1504.7,271.4,-0.8,0.9,2484.988,13.28,957.0,0.547,82.7
2023-10-31T02:54:14,2420,42.8014,5.9826,0.566,0.072,3.738,155.0,151.0,152.0,11.8,1504.7,271.3,-0.8,0.9,2485.207,13.28,773.0,0.57,82.7
2023-10-31T02:57:14,2420,42.8014,5.9826,0.43,0.048,3.889,155.0,151.0,152.0,11.8,1504.7,271.3,-0.8,0.9,2485.189,13.28,779.0,0.433,83.6
2023-10-31T03:03:13,2420,42.8014,5.9826,0.27,0.047,4.055,154.0,151.0,152.0,11.8,1504.7,271.3,-0.8,0.9,2485.476,13.28,785.0,0.274,80.1
2023-10-31T03:06:13,2420,42.8014,5.9826,0.52,0.038,3.859,155.0,151.0,152.0,11.8,1504.7,271.4,-0.9,0.9,2485.866,13.28,768.0,0.521,85.8
2023-10-31T03:09:13,2420,42.8014,5.9826,0.45,0.044,3.882,155.0,151.0,152.0,11.8,1504.7,271.5,-0.8,0.9,2485.332,13.28,771.0,0.452,84.4
2023-10-31T03:12:14,2420,42.8014,5.9826,0.109,0.307,3.781,155.0,151.0,152.0,11.8,1504.7,271.6,-0.8,0.9,2485.392,13.28,775.0,0.326,19.5
2023-10-31T03:15:14,2420,42.8014,5.9826,0.318,0.049,3.938,155.0,151.0,152.0,11.7,1504.7,271.3,-0.8,0.9,2485.32,13.28,769.0,0.322,81.2
2023-10-31T03:18:14,2420,42.8014,5.9826,0.345,0.063,3.931,155.0,151.0,152.0,11.8,1504.7,271.3,-0.9,0.9,2485.241,13.28,774.0,0.351,79.7
2023-10-31T03:21:14,2420,42.8014,5.9826,0.395,0.048,3.854,155.0,151.0,152.0,11.8,1504.7,271.3,-0.9,0.9,2485.161,13.28,773.0,0.398,83.1
2023-10-31T03:24:14,2420,42.8014,5.9826,0.211,0.058,4.149,155.0,151.0,152.0,11.8,1504.7,271.4,-0.8,0.9,2485.518,13.28,791.0,0.218,74.6
2023-10-31T03:27:14,2420,42.8014,5.9826,0.35,0.053,3.974,155.0,151.0,152.0,11.8,1504.7,271.5,-0.8,0.9,2485.289,13.28,766.0,0.354,81.4
2023-10-31T03:30:14,2420,42.8014,5.9826,0.364,0.061,4.0,155.0,151.0,152.0,11.8,1504.7,271.3,-0.8,0.9,2484.956,13.28,777.0,0.369,80.5
2023-10-31T03:33:13,2420,42.8014,5.9826,0.434,0.05,3.89,155.0,151.0,152.0,11.8,1504.7,271.3,-0.9,0.9,2485.609,13.28,772.0,0.437,83.4
2023-10-31T03:36:14,2420,42.8014,5.9826,0.475,0.047,3.83,155.0,151.0,152.0,11.8,1504.7,271.3,-0.9,0.9,2485.237,13.28,773.0,0.477,84.4
2023-10-31T03:39:14,2420,42.8014,5.9826,0.232,-0.171,3.681,155.0,151.0,152.0,11.8,1504.7,271.3,-0.8,0.9,2485.878,13.28,779.0,0.288,126.4
2023-10-31T03:42:14,2420,42.8014,5.9826,0.522,0.054,3.754,155.0,151.0,152.0,11.7,1504.7,271.5,-0.8,0.8,2485.43,13.28,761.0,0.525,84.1
2023-10-31T03:45:14,2420,42.8014,5.9826,0.584,0.049,3.713,155.0,151.0,152.0,11.8,1504.7,271.4,-0.8,0.9,2485.189,13.28,774.0,0.586,85.2
2023-10-31T03:48:14,2420,42.8014,5.9826,0.393,0.059,3.837,155.0,151.0,152.0,11.8,1504.7,271.3,-0.8,0.9,2485.342,13.28,777.0,0.397,81.5
2023-10-31T03:51:14,2420,42.8014,5.9826,0.3,0.05,3.965,155.0,151.0,152.0,11.8,1504.7,271.4,-0.8,0.9,2485.402,13.28,785.0,0.304,80.5
2023-10-31T03:54:14,2420,42.8014,5.9826,0.701,0.035,3.615,155.0,151.0,152.0,11.8,1504.7,271.4,-0.8,0.9,2485.522,13.28,779.0,0.702,87.1
2023-10-31T03:57:14,2420,42.8014,5.9826,0.246,0.296,3.579,155.0,151.0,152.0,11.8,1504.7,271.3,-0.9,0.9,2485.52,13.28,783.0,0.385,39.7
2023-10-31T04:03:13,2420,42.8014,5.9826,0.34,0.059,3.918,155.0,151.0,152.0,11.8,1504.7,271.3,-0.9,0.9,2485.645,13.28,786.0,0.345,80.2
2023-10-31T04:06:13,2420,42.8014,5.9826,0.628,0.049,3.66,155.0,151.0,152.0,11.8,1504.7,271.4,-0.8,0.9,2485.641,13.28,764.0,0.63,85.5
2023-10-31T04:09:14,2420,42.8014,5.9826,0.35,0.044,3.913,155.0,151.0,152.0,11.7,1504.7,271.5,-0.8,0.8,2485.326,13.28,777.0,0.353,82.8
2023-10-31T04:12:14,2420,42.8014,5.9826,0.359,0.056,3.913,154.0,151.0,152.0,11.8,1504.7,271.3,-0.9,0.9,2485.255,13.28,769.0,0.363,81.1
2023-10-31T04:15:14,2420,42.8014,5.9826,0.544,0.031,3.743,155.0,151.0,152.0,11.8,1504.7,271.4,-0.9,0.8,2485.41,13.28,767.0,0.545,86.7
2023-10-31T04:18:14,2420,42.8014,5.9826,0.581,0.044,3.723,155.0,151.0,152.0,11.8,1504.7,271.5,-0.8,0.9,2485.43,13.28,771.0,0.583,85.7
2023-10-31T04:21:14,2420,42.8014,5.9826,0.457,0.069,3.816,155.0,151.0,152.0,11.8,1504.7,271.4,-0.8,0.9,2485.514,13.28,773.0,0.462,81.4
2023-10-31T04:24:14,2420,42.8014,5.9826,0.402,0.054,3.903,155.0,151.0,152.0,11.8,1504.7,271.4,-0.8,0.9,2485.36,13.28,768.0,0.406,82.3
2023-10-31T04:27:14,2420,42.8014,5.9826,0.239,0.058,4.02,155.0,151.0,152.0,11.8,1504.7,271.4,-0.9,0.8,2485.548,13.28,771.0,0.245,76.4
2023-10-31T04:30:14,2420,42.8014,5.9826,0.653,0.044,3.66,155.0,151.0,152.0,11.8,1504.7,271.3,-0.8,0.9,2485.384,13.28,1454.0,0.654,86.1
2023-10-31T04:33:13,2420,42.8014,5.9826,0.36,0.021,3.973,155.0,151.0,152.0,11.8,1504.7,271.5,-0.8,0.8,2485.811,13.28,830.0,0.361,86.7
2023-10-31T04:36:13,2420,42.8014,5.9826,0.343,0.289,3.515,155.0,151.0,152.0,11.8,1504.7,271.4,-0.8,0.9,2485.44,13.28,782.0,0.449,49.9
2023-10-31T04:39:13,2420,42.8014,5.9826,0.605,0.048,3.729,155.0,151.0,152.0,11.8,1504.7,271.4,-0.9,0.9,2484.755,13.28,773.0,0.607,85.5
2023-10-31T04:42:14,2420,42.8014,5.9826,0.13,0.086,4.148,154.0,151.0,152.0,11.8,1504.7,271.4,-0.9,0.9,2485.105,13.28,789.0,0.155,56.5
2023-10-31T04:45:14,2420,42.8014,5.9826,0.23,0.063,4.074,155.0,151.0,152.0,11.8,1504.7,271.4,-0.8,0.9,2485.486,13.28,788.0,0.238,74.7
2023-10-31T04:48:14,2420,42.8014,5.9826,0.267,0.3,3.619,155.0,151.0,152.0,11.8,1504.7,271.4,-0.8,0.9,2485.522,13.28,776.0,0.402,41.7
2023-10-31T04:51:14,2420,42.8014,5.9826,0.437,0.067,3.842,154.0,151.0,152.0,11.7,1504.7,271.4,-0.8,0.9,2485.364,13.28,3416.0,0.442,81.3
2023-10-31T04:54:14,2420,42.8014,5.9826,0.342,0.076,3.987,155.0,151.0,152.0,11.8,1504.7,271.3,-0.8,0.9,2485.352,13.28,778.0,0.35,77.5
2023-10-31T04:57:14,2420,42.8014,5.9826,0.509,0.057,3.766,155.0,151.0,152.0,11.8,1504.7,271.3,-0.8,0.9,2485.49,13.28,778.0,0.512,83.6
2023-10-31T05:03:13,2420,42.8014,5.9826,0.32,0.057,4.044,155.0,151.0,152.0,11.8,1504.7,271.3,-0.9,0.8,2485.655,13.28,772.0,0.325,79.9
2023-10-31T05:06:13,2420,42.8014,5.9826,0.348,0.045,3.951,155.0,151.0,152.0,11.8,1504.7,271.4,-0.9,0.8,2485.599,13.28,787.0,0.351,82.6
2023-10-31T05:09:13,2420,42.8014,5.9826,0.904,0.027,3.386,159.0,151.0,152.0,11.8,1504.7,271.6,-0.8,0.9,2485.697,13.28,768.0,0.904,88.3
2023-10-31T05:12:13,2420,42.8014,5.9826,0.298,0.055,4.055,155.0,151.0,152.0,11.8,1504.7,271.4,-0.8,0.9,2485.44,13.28,779.0,0.303,79.5
2023-10-31T05:15:14,2420,42.8014,5.9826,0.458,0.056,3.814,155.0,151.0,152.0,11.8,1504.7,271.4,-0.9,0.9,2485.641,13.28,771.0,0.461,83.0
2023-10-31T05:18:14,2420,42.8014,5.9826,0.261,0.049,4.05,155.0,151.0,152.0,11.8,1504.7,271.3,-0.8,0.9,2485.697,13.28,763.0,0.266,79.4
2023-10-31T05:21:14,2420,42.8014,5.9826,0.308,0.064,4.003,155.0,151.0,152.0,11.8,1504.7,271.3,-0.8,0.9,2485.781,13.28,1776.0,0.315,78.3
2023-10-31T05:24:14,2420,42.8014,5.9826,0.351,0.076,3.99,155.0,151.0,152.0,11.8,1504.7,271.3,-0.8,0.9,2485.514,13.28,782.0,0.359,77.8
2023-10-31T05:27:14,2420,42.8014,5.9826,0.272,0.062,4.032,155.0,151.0,152.0,11.8,1504.7,271.3,-0.8,0.9,2485.55,13.28,768.0,0.279,77.2
2023-10-31T05:30:14,2420,42.8014,5.9826,0.539,0.052,3.782,155.0,151.0,152.0,11.7,1504.7,271.4,-0.8,0.9,2485.737,13.28,773.0,0.541,84.5
2023-10-31T05:33:13,2420,42.8014,5.9826,0.392,0.086,3.963,155.0,151.0,152.0,11.8,1504.7,271.3,-0.8,0.9,2485.428,13.28,783.0,0.401,77.6
2023-10-31T05:36:13,2420,42.8014,5.9826,0.566,0.046,3.778,155.0,151.0,152.0,11.7,1504.7,271.3,-0.8,0.9,2485.589,13.28,767.0,0.568,85.4
2023-10-31T05:39:13,2420,42.8014,5.9826,0.283,0.044,4.09,155.0,151.0,152.0,11.7,1504.7,271.4,-0.8,0.9,2485.564,13.28,821.0,0.286,81.2
2023-10-31T05:42:14,2420,42.8014,5.9826,0.437,0.043,3.872,155.0,151.0,152.0,11.8,1504.7,271.5,-0.8,0.9,2485.577,13.28,777.0,0.439,84.4
2023-10-31T05:45:14,2420,42.8014,5.9826,0.407,0.047,3.902,155.0,151.0,152.0,11.8,1504.7,271.3,-0.8,0.8,2485.324,13.28,767.0,0.41,83.4
2023-10-31T05:48:14,2420,42.8014,5.9826,0.429,-0.214,3.485,155.0,151.0,152.0,11.8,1504.7,271.4,-0.8,0.9,2485.37,13.28,779.0,0.479,116.5
2023-10-31T05:51:14,2420,42.8014,5.9826,0.353,0.055,3.976,155.0,151.0,152.0,11.8,1504.7,271.3,-0.8,0.9,2485.601,13.28,776.0,0.357,81.1
2023-10-31T05:54:14,2420,42.8014,5.9826,0.331,0.057,4.042,154.0,151.0,152.0,11.7,1504.7,271.4,-0.8,0.9,2485.235,13.28,778.0,0.336,80.2
2023-10-31T05:57:14,2420,42.8014,5.9826,0.261,0.291,3.664,155.0,151.0,152.0,11.8,1504.7,271.3,-0.9,0.8,2485.522,13.28,792.0,0.391,41.9
2023-10-31T06:03:13,2420,42.8014,5.9826,0.606,0.038,3.715,155.0,151.0,152.0,11.8,1504.7,271.4,-0.8,0.9,2485.518,13.28,781.0,0.607,86.4
2023-10-31T06:06:13,2420,42.8014,5.9826,0.587,0.045,3.721,155.0,151.0,152.0,11.8,1504.7,271.4,-0.8,0.9,2485.872,13.28,797.0,0.589,85.6
2023-10-31T06:09:14,2420,42.8014,5.9826,0.489,0.056,3.853,155.0,151.0,152.0,11.8,1504.7,271.4,-0.8,0.9,2485.735,13.28,766.0,0.492,83.5
2023-10-31T06:12:14,2420,42.8014,5.9826,0.43,0.057,3.881,155.0,151.0,152.0,11.8,1504.7,271.3,-0.8,0.9,2485.478,13.28,769.0,0.434,82.5
2023-10-31T06:15:14,2420,42.8014,5.9826,0.224,0.29,3.713,155.0,151.0,152.0,11.8,1504.7,271.3,-0.8,0.9,2485.629,13.28,772.0,0.366,37.7
2023-10-31T06:18:14,2420,42.8014,5.9826,0.374,0.042,4.002,155.0,151.0,152.0,11.8,1504.7,271.3,-0.8,0.9,2484.972,13.28,782.0,0.376,83.6
2023-10-31T06:21:14,2420,42.8014,5.9826,0.312,0.06,4.073,155.0,151.0,152.0,11.8,1504.7,271.5,-0.8,0.9,2485.671,13.28,877.0,0.318,79.1
2023-10-31T06:24:14,2420,42.8014,5.9826,0.351,0.061,4.035,155.0,151.0,152.0,11.7,1504.7,271.4,-0.8,0.9,2485.247,13.28,788.0,0.356,80.1
2023-10-31T06:27:14,2420,42.8014,5.9826,0.393,0.038,3.923,155.0,151.0,152.0,11.8,1504.7,271.3,-0.8,0.9,2485.558,13.28,786.0,0.395,84.5
2023-10-31T06:30:14,2420,42.8014,5.9826,0.231,-0.19,3.673,155.0,151.0,152.0,11.8,1504.7,271.3,-0.8,0.9,2485.675,13.28,763.0,0.299,129.4
2023-10-31T06:33:14,2420,42.8014,5.9826,0.339,0.041,4.053,155.0,151.0,152.0,11.8,1504.7,271.3,-0.8,0.9,2485.398,13.28,769.0,0.341,83.1
2023-10-31T06:36:14,2420,42.8014,5.9826,0.602,0.024,3.694,155.0,151.0,152.0,11.8,1504.7,271.4,-0.8,0.8,2485.749,13.28,929.0,0.602,87.7
2023-10-31T06:39:14,2420,42.8014,5.9826,0.488,0.039,3.796,155.0,151.0,152.0,11.8,1504.7,271.5,-0.8,0.9,2485.474,13.28,764.0,0.49,85.4
2023-10-31T06:42:14,2420,42.8014,5.9826,0.409,0.048,3.891,155.0,151.0,152.0,11.8,1504.7,271.4,-0.8,0.8,2485.536,13.28,777.0,0.412,83.3
2023-10-31T06:45:14,2420,42.8014,5.9826,0.364,0.057,3.879,155.0,151.0,152.0,11.8,1504.7,271.5,-0.8,0.9,2485.683,13.28,772.0,0.368,81.1
2023-10-31T06:48:14,2420,42.8014,5.9826,0.153,0.046,4.171,155.0,151.0,152.0,11.8,1504.7,271.4,-0.9,0.9,2485.659,13.28,775.0,0.159,73.3
2023-10-31T06:51:14,2420,42.8014,5.9826,0.609,0.038,3.717,155.0,151.0,152.0,11.7,1504.7,271.3,-0.8,0.9,2485.619,13.28,776.0,0.61,86.4
2023-10-31T06:54:14,2420,42.8014,5.9826,0.352,0.048,4.007,155.0,151.0,152.0,11.8,1504.7,271.4,-0.9,0.9,2485.846,13.28,775.0,0.355,82.2
2023-10-31T06:57:13,2420,42.8014,5.9826,0.799,0.046,3.536,155.0,151.0,152.0,11.8,1504.7,271.4,-0.8,0.9,2485.55,13.28,767.0,0.8,86.7
2023-10-31T07:03:13,2420,42.8014,5.9826,0.28,0.04,4.081,155.0,151.0,152.0,11.8,1504.7,271.4,-0.9,0.9,2485.348,13.28,776.0,0.283,81.9
2023-10-31T07:06:13,2420,42.8014,5.9826,0.602,0.063,3.738,155.0,151.0,152.0,11.8,1504.7,271.4,-0.9,0.9,2485.548,13.28,3691.0,0.605,84.0
2023-10-31T07:09:13,2420,42.8014,5.9826,0.477,0.054,3.82,155.0,151.0,152.0,11.8,1504.7,271.4,-0.8,0.8,2485.496,13.28,774.0,0.48,83.5
2023-10-31T07:12:13,2420,42.8014,5.9826,0.488,0.052,3.774,155.0,151.0,152.0,11.8,1504.7,271.4,-0.8,0.9,2486.221,13.28,767.0,0.491,83.9
2023-10-31T07:15:13,2420,42.8014,5.9826,0.354,0.044,4.027,155.0,151.0,152.0,11.8,1504.7,271.3,-0.8,0.9,2485.328,13.28,780.0,0.357,82.9
2023-10-31T07:18:13,2420,42.8014,5.9826,0.301,0.068,4.064,155.0,151.0,152.0,11.8,1504.7,271.4,-0.8,0.9,2485.472,13.28,802.0,0.309,77.3
2023-10-31T07:21:13,2420,42.8014,5.9826,0.349,0.066,4.007,155.0,151.0,152.0,11.8,1504.7,271.3,-0.8,0.9,2485.763,13.28,794.0,0.355,79.3
2023-10-31T07:24:13,2420,42.8014,5.9826,0.453,0.043,3.885,155.0,151.0,152.0,11.8,1504.7,271.4,-0.8,0.9,2485.364,13.28,775.0,0.455,84.6
2023-10-31T07:27:12,2420,42.8014,5.9826,0.391,0.064,3.93,155.0,151.0,152.0,11.8,1504.7,271.4,-0.8,0.9,2485.49,13.28,792.0,0.396,80.7
2023-10-31T07:30:12,2420,42.8014,5.9826,0.448,0.043,3.919,155.0,151.0,152.0,11.8,1504.7,271.4,-0.8,0.9,2485.689,13.28,781.0,0.45,84.5
2023-10-31T07:33:13,2420,42.8014,5.9826,0.132,0.07,4.179,155.0,151.0,152.0,11.8,1504.7,271.4,-0.8,0.9,2485.398,13.28,765.0,0.149,62.1
2023-10-31T07:36:12,2420,42.8014,5.9826,0.398,0.081,3.871,155.0,151.0,152.0,11.7,1504.7,271.5,-0.8,0.8,2485.617,13.28,788.0,0.406,78.5
2023-10-31T07:39:12,2420,42.8014,5.9826,0.288,0.059,4.015,155.0,151.0,152.0,11.8,1504.7,271.3,-0.8,0.9,2485.677,13.28,774.0,0.294,78.4
2023-10-31T07:42:12,2420,42.8014,5.9826,0.489,0.06,3.792,155.0,151.0,152.0,11.8,1504.7,271.4,-0.8,0.9,2485.378,13.28,778.0,0.493,83.0
2023-10-31T07:45:13,2420,42.8014,5.9826,0.339,0.063,3.961,154.0,151.0,152.0,11.8,1504.7,271.5,-0.8,0.9,2485.936,13.28,774.0,0.345,79.5
2023-10-31T07:48:13,2420,42.8014,5.9826,0.412,0.06,3.902,155.0,151.0,152.0,11.8,1504.7,271.3,-0.8,0.9,2485.394,13.28,774.0,0.416,81.7
2023-10-31T07:51:13,2420,42.8014,5.9826,0.438,0.064,3.825,154.0,151.0,152.0,11.8,1504.7,271.3,-0.8,0.9,2485.605,13.28,831.0,0.443,81.7
2023-10-31T07:54:12,2420,42.8014,5.9826,0.275,0.05,4.033,155.0,151.0,152.0,11.8,1504.7,271.3,-0.9,0.9,2485.705,13.28,775.0,0.279,79.7
2023-10-31T07:57:12,2420,42.8014,5.9826,0.24,0.057,4.085,155.0,151.0,152.0,11.8,1504.7,271.4,-0.8,0.9,2485.542,13.28,766.0,0.246,76.6
2023-10-31T08:03:13,2420,42.8014,5.9826,0.367,0.067,3.899,155.0,151.0,152.0,11.8,1504.7,271.5,-0.8,0.9,2485.643,13.28,766.0,0.373,79.7
2023-10-31T08:06:12,2420,42.8014,5.9826,0.345,-0.177,3.483,155.0,151.0,152.0,11.8,1504.7,271.3,-0.8,0.8,2485.48,13.28,780.0,0.388,117.2
2023-10-31T08:09:12,2420,42.8014,5.9826,0.295,0.061,4.033,155.0,151.0,152.0,11.8,1504.7,271.3,-0.9,0.9,2485.651,13.28,777.0,0.301,78.3
2023-10-31T08:12:13,2420,42.8014,5.9826,0.398,0.285,3.483,155.0,151.0,152.0,11.8,1504.7,271.3,-0.8,0.9,2486.048,13.28,768.0,0.49,54.4
2023-10-31T08:15:13,2420,42.8014,5.9826,0.523,0.062,3.801,155.0,151.0,152.0,11.8,1504.7,271.3,-0.9,0.9,2485.821,13.28,776.0,0.527,83.2
2023-10-31T08:18:13,2420,42.8014,5.9826,0.601,0.047,3.677,155.0,151.0,152.0,11.8,1504.7,271.4,-0.9,0.9,2485.659,13.28,2381.0,0.603,85.5
2023-10-31T08:21:13,2420,42.8014,5.9826,0.326,0.051,3.962,155.0,151.0,152.0,11.8,1504.7,271.4,-0.8,0.9,2485.562,13.28,1270.0,0.33,81.1
2023-10-31T08:24:13,2420,42.8014,5.9826,0.368,0.056,3.878,155.0,151.0,152.0,11.8,1504.7,271.3,-0.8,0.9,2485.307,13.28,927.0,0.372,81.3
2023-10-31T08:27:13,2420,42.8014,5.9826,0.386,0.055,3.943,154.0,151.0,152.0,11.8,1504.7,271.3,-0.8,0.9,2486.082,13.28,774.0,0.39,81.9
2023-10-31T08:30:13,2420,42.8014,5.9826,0.348,0.297,3.514,155.0,151.0,152.0,11.8,1504.7,271.4,-0.8,0.9,2485.701,13.28,782.0,0.458,49.5
2023-10-31T08:33:12,2420,42.8014,5.9826,0.377,0.038,3.937,155.0,151.0,152.0,11.8,1504.7,271.3,-0.8,0.9,2485.789,13.28,768.0,0.379,84.2
2023-10-31T08:36:13,2420,42.8014,5.9826,0.406,0.067,3.88,155.0,151.0,152.0,11.8,1504.7,271.4,-0.8,0.9,2485.231,13.28,780.0,0.411,80.6
2023-10-31T08:39:13,2420,42.8014,5.9826,0.235,0.067,4.104,155.0,151.0,152.0,11.8,1504.7,271.4,-0.8,0.9,2485.35,13.28,769.0,0.244,74.1
2023-10-31T08:42:13,2420,42.8014,5.9826,0.42,0.067,3.846,155.0,151.0,152.0,11.8,1504.7,271.4,-0.8,0.9,2485.729,13.28,787.0,0.425,80.9
2023-10-31T08:45:13,2420,42.8014,5.9826,0.267,0.079,3.976,155.0,151.0,152.0,11.8,1504.7,271.3,-0.8,0.9,2485.581,13.28,749.0,0.278,73.5
2023-10-31T08:48:13,2420,42.8014,5.9826,0.437,0.066,3.854,155.0,151.0,152.0,11.8,1504.7,271.3,-0.8,0.9,2485.928,13.28,778.0,0.442,81.4
2023-10-31T08:51:13,2420,42.8014,5.9826,0.532,0.031,3.766,155.0,151.0,152.0,11.8,1504.7,271.4,-0.8,0.9,2485.231,13.28,22939.0,0.533,86.7
2023-10-31T08:54:12,2420,42.8014,5.9826,0.476,0.028,3.813,155.0,151.0,152.0,11.8,1504.7,271.4,-0.8,0.9,2485.631,13.28,21815.0,0.477,86.6
2023-10-31T08:57:12,2420,42.8014,5.9826,0.427,0.056,3.857,155.0,151.0,152.0,11.8,1504.7,271.3,-0.9,0.9,2485.36,13.28,22032.0,0.431,82.5
2023-10-31T09:03:13,2420,42.8014,5.9826,0.318,0.055,3.909,155.0,151.0,152.0,11.8,1504.7,271.3,-0.8,0.9,2485.406,13.28,22759.0,0.323,80.2
2023-10-31T09:06:12,2420,42.8014,5.9826,0.212,0.072,4.103,155.0,151.0,152.0,11.8,1504.7,271.3,-0.8,0.9,2485.719,13.28,23006.0,0.223,71.2